Zurück zum Katalog

JILIN-1 GAOFEN 07C 04 XING

AktivWissenschaftSSO
NORAD 69538·PAYLOAD·🇨🇳 China
Dieser Satellitenname wurde noch nicht durch offizielle Quellen bestätigt.

Gestartet Jun 15, 2026 von Jiuquan Satellite Launch Center

Loading…

Nächste Überflüge (nächste 24 Stunden)

TLE

AktuellSource: Space-Track

Epoche: Sep 14, 2026, 13:41 UTC

1 69538U 26134A   26257.57056345  .00003257  00000-0  21140-3 0  9992
2 69538  97.6932 327.9639 0015266 331.7223  28.3175 15.08699172 13793

Verfolge JILIN-1 GAOFEN 07C 04 XING in Echtzeit mit AllMySat

Download on the App Store